Raleigh-Durham Airport, NC

3:51 PM EDT on April 21, 2018 (GMT -0400)
Raleigh-Durham International

Weather History for KRDU - May, 2014

Change the Weather History Date:

Thursday, May 15, 2014

  Actual Average Record
Temperature  
Mean Temperature 73 °F 68 °F  
Max Temperature 79 °F 79 °F 95 °F (2010)
Min Temperature 67 °F 56 °F 41 °F (1895)
Degree Days  
Heating Degree Days 0 2  
Month to date heating degree days 6 38  
Since 1 July heating degree days 3457 3227  
Cooling Degree Days 8 4  
Month to date cooling degree days 98 51  
Year to date cooling degree days 129 112  
Growing Degree Days 22 (Base 50)    
Moisture  
Dew Point 66 °F    
Average Humidity 82    
Maximum Humidity 97    
Minimum Humidity 67    
Precipitation  
Precipitation 3.38 in 0.10 in 3.38 in (2014)
Month to date precipitation 3.45 1.46  
Year to date precipitation 18.70 15.22  
Sea Level Pressure  
Sea Level Pressure 29.98 in    
Wind  
Wind Speed 9 mph (SSE)    
Max Wind Speed 15 mph    
Max Gust Speed 31 mph    
Visibility 5 miles    
Events Rain , Thunderstorm    
T = Trace of Precipitation, MM = Missing Value Source: NWS Daily Summary

Daily Weather History Graph

Daily Weather History Graph

Search for Another Location

Airport or City:

Astronomy

May. 15, 2014 Rise Set
Actual Time 6:09 AM EDT 8:13 PM EDT
Civil Twilight 5:41 AM EDT 8:42 PM EDT
Nautical Twilight 5:06 AM EDT 9:17 PM EDT
Astronomical Twilight 4:29 AM EDT 9:54 PM EDT
Moon 9:20 PM EDT (5/15) 6:54 AM EDT (5/15)
Length of Visible Light 15h 01m
Length of Day
14h 04m
Full, 99% of the Moon is Illuminated
May 15
Full
May 21
Last Quarter
May 28
New
Jun 5
First Quarter
Jun 13
Full

Hourly Weather History & Observations

Time (EDT) Temp. Dew Point Humidity Pressure Visibility Wind Dir Wind Speed Gust Speed Precip Events Conditions
12:51 AM 71.1 °F 61.0 °F 70% 30.10 in 10.0 mi South 10.4 mph - N/A   Mostly Cloudy
1:51 AM 69.1 °F 61.0 °F 75% 30.09 in 10.0 mi SSE 5.8 mph - N/A   Mostly Cloudy
2:51 AM 68.0 °F 61.0 °F 78% 30.06 in 10.0 mi SSE 4.6 mph - N/A   Scattered Clouds
3:51 AM 66.2 °F 62.6 °F 88% 30.08 in 10.0 mi SSE 6.9 mph - N/A   Scattered Clouds
4:51 AM 68.0 °F 63.0 °F 84% 30.06 in 10.0 mi SSE 6.9 mph - N/A   Mostly Cloudy
5:51 AM 66.9 °F 63.0 °F 87% 30.06 in 10.0 mi SSE 5.8 mph - N/A   Mostly Cloudy
6:07 AM 66.2 °F 62.6 °F 88% 30.07 in 10.0 mi SSE 6.9 mph - N/A   Mostly Cloudy
6:51 AM 66.9 °F 63.0 °F 87% 30.05 in 10.0 mi SSE 9.2 mph - N/A   Mostly Cloudy
7:51 AM 70.0 °F 64.0 °F 81% 30.05 in 10.0 mi SSE 11.5 mph - N/A   Mostly Cloudy
8:40 AM 71.6 °F 64.4 °F 78% 30.06 in 10.0 mi SSE 11.5 mph - N/A   Mostly Cloudy
8:51 AM 73.9 °F 64.9 °F 73% 30.04 in 10.0 mi SSE 13.8 mph 21.9 mph N/A   Mostly Cloudy
9:28 AM 73.4 °F 64.4 °F 73% 30.05 in 10.0 mi South 11.5 mph 20.7 mph N/A   Mostly Cloudy
9:51 AM 75.0 °F 64.9 °F 71% 30.03 in 10.0 mi SSE 15.0 mph 20.7 mph N/A   Overcast
10:51 AM 75.9 °F 66.0 °F 71% 30.02 in 10.0 mi SSE 15.0 mph 21.9 mph N/A   Overcast
11:51 AM 78.1 °F 66.9 °F 68% 30.00 in 10.0 mi SSE 10.4 mph 18.4 mph N/A   Overcast
12:45 PM 75.2 °F 68.0 °F 78% 30.00 in 6.0 mi SSE 5.8 mph - 0.00 in Rain , Thunderstorm Light Thunderstorms and Rain
12:51 PM 73.9 °F 69.1 °F 85% 29.99 in 2.0 mi SE 5.8 mph - 0.01 in Rain , Thunderstorm Light Thunderstorms and Rain
1:17 PM 73.4 °F 69.8 °F 88% 30.01 in 1.0 mi SW 9.2 mph - 0.20 in Rain , Thunderstorm Heavy Thunderstorms and Rain
1:36 PM 71.6 °F 68.0 °F 88% 30.00 in 2.0 mi Variable 3.5 mph - 0.44 in Rain Light Rain
1:51 PM 71.6 °F 66.2 °F 83% 30.01 in 2.0 mi SSE 4.6 mph - N/A Rain Rain
2:26 PM 69.8 °F 66.2 °F 88% 30.01 in 1.2 mi South 3.5 mph - N/A Rain Heavy Rain
2:45 PM 69.8 °F 68.0 °F 94% 30.01 in 2.0 mi WSW 8.1 mph - 0.42 in Rain Rain
2:46 PM 70.0 °F 68.0 °F 93% 30.00 in 2.0 mi WSW 5.8 mph - 0.42 in Rain Rain
3:16 PM 69.8 °F 66.2 °F 88% 30.00 in 2.0 mi SSW 4.6 mph - 0.11 in Rain Light Rain
3:24 PM 69.8 °F 66.2 °F 88% 30.00 in 1.5 mi South 4.6 mph - 0.11 in Rain Rain
3:31 PM 69.8 °F 66.2 °F 88% 30.00 in 1.0 mi SSE 6.9 mph - 0.20 in Rain Heavy Rain
3:42 PM 69.8 °F 66.2 °F 88% 29.98 in 1.5 mi SSE 5.8 mph - 0.50 in Rain Rain
3:51 PM 70.0 °F 66.9 °F 90% 29.97 in 2.0 mi SE 3.5 mph - 0.54 in Rain Rain
4:51 PM 70.0 °F 66.9 °F 90% 29.95 in 4.0 mi SE 4.6 mph - 0.10 in Rain Light Rain
5:19 PM 71.6 °F 68.0 °F 88% 29.95 in 1.0 mi SE 8.1 mph - 0.00 in Rain Rain
5:33 PM 71.6 °F 68.0 °F 88% 29.94 in 3.0 mi Variable 5.8 mph - N/A Rain Light Rain
5:51 PM 71.1 °F 68.0 °F 90% 29.92 in 3.0 mi SE 6.9 mph - 0.07 in Rain Light Rain
6:35 PM 71.6 °F 68.0 °F 88% 29.91 in 3.0 mi SE 8.1 mph - 0.04 in Rain Light Rain
6:44 PM 71.6 °F 68.0 °F 88% 29.91 in 1.5 mi SE 5.8 mph - 0.06 in Rain Heavy Rain
6:51 PM 71.1 °F 68.0 °F 90% 29.91 in 1.5 mi SSE 9.2 mph - 0.12 in Rain Heavy Rain
7:25 PM 71.6 °F 68.0 °F 88% 29.90 in 3.0 mi SSE 10.4 mph 18.4 mph 0.17 in Rain Rain
7:51 PM 71.6 °F 68.0 °F 88% 29.90 in 3.0 mi South 6.9 mph - N/A Rain Light Rain
8:09 PM 71.6 °F 68.0 °F 88% 29.89 in 3.0 mi South 6.9 mph - 0.02 in Rain Rain
8:36 PM 71.6 °F 68.0 °F 88% 29.89 in 2.0 mi South 8.1 mph 20.7 mph 0.08 in Rain Rain
8:51 PM 71.1 °F 66.9 °F 87% 29.87 in 3.0 mi SSE 11.5 mph 18.4 mph 0.13 in Rain Rain
9:51 PM 70.0 °F 66.9 °F 90% 29.87 in 3.0 mi SSE 9.2 mph - 0.24 in Rain Rain
10:07 PM 69.8 °F 66.2 °F 88% 29.89 in 2.0 mi South 17.3 mph 23.0 mph 0.10 in Rain Heavy Rain
10:12 PM 69.8 °F 66.2 °F 88% 29.89 in 1.5 mi SSW 12.7 mph 23.0 mph 0.21 in Rain Heavy Rain
10:32 PM 69.8 °F 66.2 °F 88% 29.88 in 1.5 mi South 15.0 mph 25.3 mph 0.68 in Rain Heavy Rain
10:51 PM 70.0 °F 66.9 °F 90% 29.86 in 1.5 mi South 12.7 mph 21.9 mph 0.90 in Rain Rain
11:29 PM 69.8 °F 66.2 °F 88% 29.86 in 3.0 mi SSE 8.1 mph 17.3 mph 0.12 in Rain Light Rain
11:51 PM 70.0 °F 66.9 °F 90% 29.84 in 9.0 mi SSE 12.7 mph - 0.13 in Rain Light Rain